Snowfall_Accumulation
0.2 1.4 3.8 1.3 0.7 1.1 1.1 1.4 1.6 0.5 0.0 0.1 0.3 0.4 0.3 0.0 0.1 0.1 0.0 0.0 0.0 0.0 0.0 0.0 0.0 0.0 0.0 0.0 0.0 0.0 0.0 0.0 0.0 0.0 0.0 0.0 0.0 0.0 0.0 0.0 0.0 0.0 0.0 0.0
2.1 3.4 1.0 0.4 0.5 1.1 1.3 2.0 1.8 0.6 0.0 0.3 0.3 0.4 0.1 0.0 0.1 0.1 0.1 0.0 0.0 0.0 0.0 0.0 0.0 0.0 0.0 0.0 0.0 0.0 0.0 0.0 0.0 0.0 0.0 0.0 0.0 0.0 0.0 0.0 0.0 0.0 0.0 0.0
4.0 1.6 0.1 0.5 0.8 1.7 1.7 2.1 1.3 1.5 0.3 0.1 0.4 1.0 0.5 0.4 0.1 0.1 0.0 0.0 0.0 0.0 0.0 0.0 0.0 0.0 0.0 0.0 0.0 0.0 0.0 0.0 0.0 0.0 0.0 0.0 0.0 0.0 0.0 0.0 0.0 0.0 0.0 0.0
1.4 0.5 0.2 0.9 0.9 1.4 2.5 0.4 0.5 0.9 1.6 3.0 1.4 4.7 0.9 0.5 0.4 0.2 0.1 0.0 0.0 0.0 0.0 0.0 0.0 0.0 0.0 0.0 0.0 0.0 0.0 0.0 0.0 0.0 0.0 0.0 0.0 0.0 0.0 0.0 0.0 0.0 0.0 0.0
2.8 0.4 0.5 1.9 0.5 0.7 1.3 0.3 0.5 0.7 1.9 3.5 1.4 4.1 2.3 1.1 1.1 0.3 0.4 0.2 0.0 0.0 0.0 0.0 0.0 0.0 0.0 0.0 0.0 0.0 0.0 0.0 0.0 0.0 0.0 0.0 0.0 0.0 0.0 0.0 0.0 0.0 0.0 0.0
0.8 0.1 0.2 0.3 0.1 0.2 0.3 0.2 0.6 1.3 3.4 7.7 2.3 3.6 3.3 2.5 2.0 0.4 0.2 0.2 0.1 0.0 0.0 0.0 0.0 0.0 0.0 0.0 0.0 0.0 0.0 0.0 0.0 0.0 0.0 0.0 0.0 0.0 0.0 0.0 0.0 0.0 0.0 0.0
6.5 1.3 0.3 0.1 1.5 0.8 1.3 7.3 14.3 13.1 11.4 5.3 1.2 2.3 3.2 1.2 0.3 0.4 0.2 0.2 0.2 0.1 0.1 0.0 0.0 0.0 0.0 0.0 0.0 0.0 0.0 0.0 0.0 0.0 0.0 0.0 0.0 0.0 0.0 0.0 0.0 0.0 0.0 0.0
9.6 7.5 1.1 0.3 0.6 1.5 1.7 5.0 10.9 9.3 6.0 2.6 1.5 2.4 2.6 0.3 0.1 0.2 0.2 0.3 0.1 0.1 0.1 0.1 0.0 0.0 0.0 0.0 0.0 0.0 0.0 0.0 0.0 0.0 0.0 0.0 0.0 0.0 0.0 0.0 0.0 0.0 0.0 0.0
6.8 5.8 0.2 0.1 0.2 0.9 2.8 4.3 3.5 7.4 5.3 3.4 2.0 1.9 1.1 0.3 0.3 0.3 0.3 0.2 0.2 0.1 0.1 0.1 0.1 0.0 0.0 0.0 0.0 0.0 0.0 0.0 0.0 0.0 0.0 0.0 0.0 0.0 0.0 0.0 0.0 0.0 0.0 0.0
3.3 6.8 1.6 0.1 0.2 0.3 0.5 1.8 5.7 11.5 8.9 4.8 2.0 1.7 2.5 2.0 1.2 0.8 0.3 0.2 0.1 0.1 0.1 0.1 0.0 0.0 0.0 0.0 0.0 0.0 0.0 0.0 0.0 0.0 0.0 0.0 0.0 0.0 0.0 0.0 0.0 0.0 0.0 0.0
1.0 7.8 5.1 1.9 2.7 3.1 2.7 4.5 7.0 8.7 7.2 6.4 3.8 2.2 1.4 1.4 1.0 0.7 0.2 0.1 0.1 0.1 0.1 0.0 0.0 0.0 0.0 0.0 0.0 0.0 0.0 0.0 0.0 0.0 0.0 0.0 0.0 0.0 0.0 0.0 0.0 0.0 0.0 0.0
0.8 6.0 6.9 2.7 0.1 0.1 1.5 3.3 5.8 10.8 7.8 5.9 4.9 2.7 0.2 0.6 0.3 0.2 0.1 0.1 0.1 0.1 0.0 0.0 0.0 0.0 0.0 0.0 0.0 0.0 0.0 0.0 0.0 0.0 0.0 0.0 0.0 0.0 0.0 0.0 0.0 0.0 0.0 0.0
1.2 7.6 9.7 4.2 1.5 0.2 3.5 2.4 2.7 6.1 11.3 9.1 6.9 2.9 0.1 0.1 0.2 0.1 0.1 0.1 0.1 0.1 0.0 0.0 0.1 0.0 0.0 0.0 0.0 0.0 0.0 0.0 0.0 0.0 0.0 0.0 0.0 0.0 0.0 0.0 0.0 0.0 0.0 0.0
0.5 7.0 7.4 5.5 4.2 4.5 4.6 2.9 3.4 9.8 15.2 8.0 3.6 1.7 0.6 0.3 0.5 0.3 0.2 0.2 0.2 0.1 0.1 0.0 0.1 0.0 0.0 0.0 0.0 0.0 0.0 0.1 0.1 0.1 0.0 0.0 0.0 0.0 0.0 0.0 0.0 0.0 0.0 0.0
0.6 7.9 5.7 2.4 0.9 2.3 3.5 3.3 2.8 6.6 7.3 7.8 3.1 1.5 0.9 0.7 0.7 0.4 0.2 0.2 0.1 0.1 0.1 0.1 0.0 0.0 0.0 0.0 0.0 0.0 0.1 0.0 0.0 0.0 0.0 0.0 0.0 0.0 0.0 0.0 0.0 0.0 0.0 0.0
0.7 4.8 4.9 3.9 0.5 1.1 2.9 1.4 1.2 2.0 2.0 3.3 2.5 1.7 0.5 0.4 0.3 0.3 0.3 0.3 0.2 0.2 0.1 0.1 0.0 0.0 0.0 0.0 0.0 0.0 0.0 0.0 0.0 0.0 0.0 0.0 0.0 0.0 0.0 0.0 0.0 0.0 0.0 0.0
1.1 2.3 9.0 5.4 1.7 2.7 5.0 0.7 1.0 1.3 1.2 1.9 3.1 1.1 0.3 0.2 0.3 0.3 0.3 0.2 0.2 0.1 0.1 0.1 0.0 0.0 0.0 0.0 0.0 0.0 0.0 0.0 0.0 0.0 0.0 0.0 0.0 0.0 0.0 0.0 0.0 0.0 0.1 0.1
0.8 2.6 8.8 6.5 4.2 5.9 1.2 0.2 0.2 0.6 0.9 0.8 0.6 0.5 0.2 0.2 0.2 0.2 0.2 0.2 0.1 0.1 0.1 0.0 0.1 0.1 0.0 0.0 0.0 0.0 0.0 0.0 0.0 0.0 0.0 0.0 0.0 0.0 0.1 0.1 0.4 0.5 0.3 0.4
0.2 1.6 7.7 8.0 5.7 3.1 0.3 0.1 0.2 0.6 1.3 0.7 0.7 0.3 0.2 0.2 0.1 0.1 0.1 0.1 0.1 0.1 0.1 0.0 0.0 0.0 0.0 0.0 0.1 0.1 0.1 0.1 0.1 0.1 0.1 0.1 0.1 0.1 0.2 0.4 0.4 0.7 1.1 1.3
0.2 1.0 5.9 7.9 6.7 2.9 1.2 0.3 0.2 0.4 1.5 0.7 0.3 0.3 0.2 0.2 0.6 0.3 0.1 0.1 0.0 0.0 0.0 0.0 0.0 0.0 0.0 0.1 0.0 0.1 0.4 0.6 0.2 0.2 0.5 0.5 0.4 0.7 1.0 1.0 1.2 1.0 1.1 1.4
1.6 3.7 6.7 6.4 6.2 2.0 1.0 0.3 0.4 1.9 4.0 0.7 0.4 0.4 0.3 0.8 0.6 0.2 0.0 0.0 0.0 0.1 0.1 0.0 0.1 0.1 0.2 0.1 0.2 0.3 0.4 0.9 1.0 0.8 0.8 0.9 1.2 1.1 1.5 1.2 1.0 1.0 1.1 1.0
1.3 2.5 3.1 3.8 5.9 3.1 0.9 0.6 1.5 1.8 0.8 0.5 0.4 0.3 0.3 0.2 0.1 0.1 0.2 0.1 0.1 0.1 0.1 0.1 0.3 0.4 0.3 0.6 1.2 1.5 1.6 1.8 1.5 1.6 2.0 2.1 1.4 1.3 1.4 1.1 1.1 1.0 0.8 0.6
1.1 1.6 1.9 2.2 2.2 1.2 0.7 0.6 0.5 0.4 0.4 0.3 0.2 0.2 0.2 0.2 0.1 0.1 0.1 0.0 0.1 0.0 0.1 0.2 0.2 0.4 0.5 0.7 1.0 1.2 1.5 0.9 1.5 1.9 1.7 1.3 0.9 0.7 0.7 0.6 0.6 0.6 0.5 0.4
0.8 0.7 1.3 1.9 1.3 0.9 0.8 0.5 0.2 0.2 0.2 0.2 0.1 0.1 0.1 0.2 0.1 0.1 0.0 0.1 0.1 0.1 0.1 0.3 0.4 0.5 0.6 0.5 0.5 0.9 1.1 0.9 0.7 0.9 0.8 0.8 0.5 0.4 0.3 0.3 0.2 0.2 0.3 0.4
0.9 1.0 1.6 1.6 1.1 0.9 0.7 0.4 0.3 0.2 0.2 0.2 0.1 0.1 0.1 0.1 0.1 0.1 0.1 0.1 0.1 0.1 0.1 0.1 0.2 0.3 0.4 0.5 0.5 0.5 0.3 0.4 0.4 0.4 0.3 0.2 0.2 0.1 0.1 0.2 0.2 0.2 0.1 0.3
0.5 0.8 1.5 1.5 0.8 0.9 0.6 0.3 0.1 0.2 0.3 0.2 0.2 0.1 0.1 0.1 0.2 0.1 0.1 0.1 0.1 0.2 0.1 0.2 0.2 0.3 0.3 0.3 0.3 0.2 0.1 0.2 0.2 0.2 0.2 0.2 0.4 0.2 0.3 0.3 0.3 0.1 0.0 0.1